When you browse on this site, cookies collect data to enhance your experience and personalize the content and advertising you see.
Visit our Privacy Policy to learn more. By continuing to use the site, you agree to this use of cookies and data.

Previsão horária em Ali Bayramli

Hoje, 5 Agosto, Quarta-feira

Tempo Temperatura Precipitação Vento Pressão Humidade
00:00 +24°C° 0 mm 1 m/s 756 mmHg 57%
01:00 +24°C° 0 mm 1 m/s 756 mmHg 59%
02:00 +23°C° 0 mm 1 m/s 755 mmHg 60%
03:00 +23°C° 0 mm 1 m/s 755 mmHg 62%
04:00 +24°C° 0 mm 1 m/s 755 mmHg 59%
05:00 +25°C° 0 mm 1 m/s 755 mmHg 56%
06:00 +25°C° 0 mm 1 m/s 755 mmHg 53%
07:00 +26°C° 0 mm 1 m/s 755 mmHg 49%
08:00 +28°C° 0 mm 1 m/s 755 mmHg 44%
09:00 +29°C° 0 mm 2 m/s 755 mmHg 40%
10:00 +30°C° 0 mm 2 m/s 755 mmHg 38%
11:00 +30°C° 0 mm 3 m/s 754 mmHg 36%
12:00 +32°C° 0 mm 4 m/s 754 mmHg 35%
13:00 +32°C° 0 mm 5 m/s 754 mmHg 35%
14:00 +32°C° 0 mm 5 m/s 754 mmHg 35%
15:00 +32°C° 0 mm 5 m/s 754 mmHg 36%
16:00 +30°C° 0 mm 5 m/s 754 mmHg 38%
17:00 +29°C° 0 mm 5 m/s 754 mmHg 41%
18:00 +28°C° 0 mm 5 m/s 754 mmHg 44%
19:00 +27°C° 0 mm 4 m/s 754 mmHg 50%
20:00 +26°C° 0 mm 3 m/s 754 mmHg 56%
21:00 +25°C° 0 mm 2 m/s 755 mmHg 62%
22:00 +24°C° 0 mm 2 m/s 755 mmHg 64%
23:00 +24°C° 0 mm 1 m/s 755 mmHg 65%

Amanhã, 6 Agosto, Quinta-feira

Tempo Temperatura Precipitação Vento Pressão Humidade
00:00 +24°C° 0 mm 1 m/s 755 mmHg 67%
01:00 +23°C° 0 mm 1 m/s 755 mmHg 68%
02:00 +23°C° 0 mm 1 m/s 755 mmHg 68%
03:00 +23°C° 0 mm 1 m/s 755 mmHg 69%
04:00 +24°C° 0 mm 1 m/s 755 mmHg 67%
05:00 +24°C° 0 mm 1 m/s 755 mmHg 65%
06:00 +25°C° 0 mm 1 m/s 756 mmHg 63%
07:00 +26°C° 0 mm 1 m/s 756 mmHg 58%
08:00 +27°C° 0 mm 1 m/s 756 mmHg 54%
09:00 +29°C° 0 mm 1 m/s 756 mmHg 49%
10:00 +30°C° 0 mm 2 m/s 756 mmHg 44%
11:00 +31°C° 0 mm 3 m/s 756 mmHg 38%
12:00 +34°C° 0 mm 4 m/s 756 mmHg 32%
13:00 +33°C° 0 mm 5 m/s 756 mmHg 32%
14:00 +33°C° 0 mm 6 m/s 756 mmHg 32%
15:00 +33°C° 0 mm 6 m/s 756 mmHg 32%
16:00 +32°C° 0 mm 6 m/s 757 mmHg 35%
17:00 +30°C° 0 mm 6 m/s 757 mmHg 38%
18:00 +30°C° 0 mm 6 m/s 757 mmHg 42%
19:00 +29°C° 0 mm 5 m/s 757 mmHg 46%
20:00 +28°C° 0 mm 4 m/s 757 mmHg 50%
21:00 +27°C° 0 mm 3 m/s 758 mmHg 54%
22:00 +26°C° 0 mm 3 m/s 757 mmHg 56%
23:00 +26°C° 0 mm 2 m/s 757 mmHg 59%

Depois de amanhã, 7 Agosto, Sexta-feira

Tempo Temperatura Precipitação Vento Pressão Humidade
00:00 +25°C° 0 mm 2 m/s 757 mmHg 62%
01:00 +25°C° 0 mm 2 m/s 757 mmHg 63%
02:00 +25°C° 0 mm 2 m/s 757 mmHg 64%
03:00 +24°C° 0 mm 2 m/s 757 mmHg 64%
04:00 +25°C° 0 mm 2 m/s 757 mmHg 63%
05:00 +25°C° 0 mm 2 m/s 757 mmHg 61%
06:00 +25°C° 0 mm 2 m/s 757 mmHg 59%
07:00 +27°C° 0 mm 2 m/s 757 mmHg 51%
08:00 +29°C° 0 mm 3 m/s 757 mmHg 44%
09:00 +31°C° 0 mm 3 m/s 757 mmHg 37%
10:00 +32°C° 0 mm 2 m/s 757 mmHg 33%
11:00 +34°C° 0 mm 2 m/s 757 mmHg 30%
12:00 +35°C° 0 mm 1 m/s 757 mmHg 27%
13:00 +36°C° 0 mm 2 m/s 757 mmHg 27%
14:00 +36°C° 0 mm 2 m/s 756 mmHg 26%
15:00 +37°C° 0 mm 3 m/s 756 mmHg 25%
16:00 +36°C° 0 mm 4 m/s 756 mmHg 28%
17:00 +35°C° 0 mm 5 m/s 756 mmHg 31%
18:00 +34°C° 0 mm 6 m/s 756 mmHg 34%
19:00 +32°C° 0 mm 5 m/s 756 mmHg 41%
20:00 +30°C° 0 mm 4 m/s 757 mmHg 47%
21:00 +29°C° 0 mm 3 m/s 757 mmHg 53%
22:00 +28°C° 0 mm 3 m/s 757 mmHg 55%
23:00 +28°C° 0 mm 2 m/s 756 mmHg 57%

8 Agosto, Sábado

Tempo Temperatura Precipitação Vento Pressão Humidade
00:00 +27°C° 0 mm 1 m/s 756 mmHg 58%
01:00 +27°C° 0 mm 1 m/s 756 mmHg 58%
02:00 +27°C° 0 mm 1 m/s 756 mmHg 57%
03:00 +26°C° 0 mm 1 m/s 755 mmHg 57%
04:00 +27°C° 0 mm 1 m/s 756 mmHg 53%
05:00 +28°C° 0 mm 1 m/s 756 mmHg 50%
06:00 +29°C° 0 mm 1 m/s 756 mmHg 47%
07:00 +30°C° 0 mm 1 m/s 756 mmHg 41%
08:00 +32°C° 0 mm 1 m/s 755 mmHg 36%
09:00 +34°C° 0 mm 1 m/s 755 mmHg 30%
10:00 +35°C° 0 mm 1 m/s 755 mmHg 28%
11:00 +36°C° 0 mm 1 m/s 755 mmHg 27%
12:00 +37°C° 0 mm 1 m/s 754 mmHg 25%
13:00 +38°C° 0 mm 3 m/s 754 mmHg 25%
14:00 +38°C° 0 mm 4 m/s 754 mmHg 25%
15:00 +39°C° 0 mm 5 m/s 753 mmHg 25%
16:00 +38°C° 0 mm 6 m/s 753 mmHg 28%
17:00 +36°C° 0 mm 6 m/s 753 mmHg 31%
18:00 +34°C° 0 mm 7 m/s 753 mmHg 34%
19:00 +33°C° 0 mm 6 m/s 753 mmHg 41%
20:00 +30°C° 0 mm 5 m/s 753 mmHg 49%
21:00 +29°C° 0 mm 4 m/s 754 mmHg 56%
22:00 +29°C° 0 mm 3 m/s 753 mmHg 59%
23:00 +28°C° 0 mm 3 m/s 753 mmHg 62%

9 Agosto, Domingo

Tempo Temperatura Precipitação Vento Pressão Humidade
00:00 +28°C° 0 mm 2 m/s 753 mmHg 65%
01:00 +27°C° 0 mm 2 m/s 753 mmHg 66%
02:00 +27°C° 0 mm 2 m/s 753 mmHg 67%
03:00 +26°C° 0 mm 1 m/s 752 mmHg 69%
04:00 +27°C° 0 mm 2 m/s 752 mmHg 67%
05:00 +27°C° 0 mm 2 m/s 752 mmHg 66%
06:00 +27°C° 0 mm 2 m/s 752 mmHg 64%
07:00 +29°C° 0 mm 2 m/s 752 mmHg 55%
08:00 +31°C° 0 mm 3 m/s 752 mmHg 46%
09:00 +34°C° 0 mm 3 m/s 752 mmHg 36%
10:00 +35°C° 0 mm 4 m/s 752 mmHg 34%
11:00 +36°C° 0 mm 5 m/s 752 mmHg 31%
12:00 +37°C° 0 mm 5 m/s 752 mmHg 29%
13:00 +38°C° 0 mm 6 m/s 751 mmHg 29%
14:00 +38°C° 0 mm 6 m/s 751 mmHg 29%
15:00 +38°C° 0 mm 7 m/s 751 mmHg 29%
16:00 +35°C° 0 mm 7 m/s 751 mmHg 33%
17:00 +34°C° 0 mm 7 m/s 751 mmHg 37%
18:00 +33°C° 0 mm 7 m/s 751 mmHg 41%
19:00 +30°C° 0 mm 6 m/s 751 mmHg 48%
20:00 +29°C° 0 mm 5 m/s 751 mmHg 54%
21:00 +28°C° 0 mm 4 m/s 752 mmHg 61%
22:00 +28°C° 0 mm 3 m/s 752 mmHg 63%
23:00 +27°C° 0 mm 3 m/s 752 mmHg 65%

10 Agosto, Segunda-feira

Tempo Temperatura Precipitação Vento Pressão Humidade
00:00 +27°C° 0 mm 2 m/s 752 mmHg 67%
01:00 +27°C° 0 mm 3 m/s 752 mmHg 67%
02:00 +27°C° 0 mm 3 m/s 751 mmHg 67%
03:00 +26°C° 0 mm 3 m/s 751 mmHg 67%
04:00 +26°C° 0 mm 3 m/s 752 mmHg 66%
05:00 +27°C° 0 mm 3 m/s 752 mmHg 66%
06:00 +27°C° 0 mm 3 m/s 752 mmHg 65%
07:00 +29°C° 0 mm 4 m/s 752 mmHg 56%
08:00 +30°C° 0 mm 4 m/s 752 mmHg 47%
09:00 +33°C° 0 mm 5 m/s 752 mmHg 39%
10:00 +34°C° 0 mm 5 m/s 752 mmHg 35%
11:00 +35°C° 0 mm 5 m/s 752 mmHg 32%
12:00 +36°C° 0 mm 5 m/s 752 mmHg 29%
13:00 +36°C° 0 mm 6 m/s 752 mmHg 28%
14:00 +36°C° 0 mm 6 m/s 751 mmHg 28%
15:00 +35°C° 0 mm 7 m/s 751 mmHg 27%
16:00 +34°C° 0 mm 7 m/s 751 mmHg 31%
17:00 +33°C° 0 mm 7 m/s 751 mmHg 34%
18:00 +32°C° 0 mm 7 m/s 751 mmHg 37%
19:00 +30°C° 0 mm 6 m/s 752 mmHg 42%
20:00 +29°C° 0 mm 6 m/s 752 mmHg 48%
21:00 +28°C° 0 mm 6 m/s 753 mmHg 53%
22:00 +28°C° 0 mm 6 m/s 753 mmHg 52%
23:00 +28°C° 0 mm 6 m/s 753 mmHg 51%
Mostrar mais